Change the Weather History Date:

Saturday, January 26, 2013

  Actual Average (KINT) Record (KINT)
Temperature  
Mean Temperature 30 °F -  
Max Temperature 41 °F 45 °F 73 °F (1967)
Min Temperature 20 °F 29 °F 12 °F (1968)
Degree Days  
Heating Degree Days 34    
Moisture  
Dew Point 24 °F    
Average Humidity 72    
Maximum Humidity 85    
Minimum Humidity 54    
Precipitation  
Precipitation 0.00 in - - ()
Sea Level Pressure  
Sea Level Pressure 30.17 in    
Wind  
Wind Speed 2 mph (NNW)    
Max Wind Speed 10 mph    
Max Gust Speed 16 mph    
Visibility 9 miles    
Events      
Averages and records for this station are not official NWS values.
T = Trace of Precipitation, MM = Missing Value Source: NWS Daily Summary

Daily Weather History Graph

Daily Weather History Graph

Search for Another Location

Airport or City:

Trip Planner

Search our weather history database for the weather conditions in past years. The results will help you decide how hot, cold, wet, or windy it might be!

Date:

Astronomy

Jan. 26, 2013 Rise Set
Actual Time 7:27 AM EST 5:42 PM EST
Civil Twilight 7:00 AM EST 6:09 PM EST
Nautical Twilight 6:29 AM EST 6:40 PM EST
Astronomical Twilight 5:58 AM EST 7:11 PM EST
Moon 5:34 PM EST (1/26) 6:45 AM EST (1/26)
Length of Visible Light 11h 09m
Length of Day
10h 14m
Full, 100% of the Moon is Illuminated
Jan 26
Full
Jan 26
Full
Feb 3
Last Quarter
Feb 10
New
Feb 17
First Quarter

Hourly Weather History & Observations

Time (EST) Temp. Windchill Dew Point Humidity Pressure Visibility Wind Dir Wind Speed Gust Speed Precip Events Conditions
12:15 AM 24.6 °F - 20.3 °F 84% 30.06 in 5.0 mi Calm Calm - N/A   Overcast
12:35 AM 24.6 °F 20.3 °F 20.1 °F 83% 30.05 in 5.0 mi South 3.5 mph - N/A   Overcast
1:15 AM 23.9 °F - 19.8 °F 84% 30.05 in 5.0 mi Calm Calm - N/A   Scattered Clouds
1:35 AM 23.0 °F - 18.3 °F 82% 30.05 in 4.0 mi Calm Calm - N/A   Haze
1:55 AM 22.1 °F - 17.2 °F 82% 30.05 in 5.0 mi Calm Calm - N/A   Haze
2:15 AM 21.9 °F - 16.7 °F 80% 30.05 in 5.0 mi Calm Calm - N/A   Haze
2:35 AM 22.1 °F - 17.1 °F 81% 30.05 in 5.0 mi Calm Calm - N/A   Haze
2:55 AM 22.1 °F - 17.4 °F 82% 30.05 in 5.0 mi Calm Calm - N/A   Haze
3:15 AM 22.1 °F 17.4 °F 17.1 °F 81% 30.05 in 5.0 mi North 3.5 mph - N/A   Haze
3:35 AM 22.1 °F - 17.4 °F 82% 30.05 in 5.0 mi Calm Calm - N/A   Haze
3:55 AM 21.2 °F - 16.2 °F 81% 30.05 in 5.0 mi Calm Calm - N/A   Haze
4:15 AM 21.0 °F - 15.8 °F 80% 30.04 in 4.0 mi Calm Calm - N/A   Haze
4:35 AM 20.3 °F - 14.9 °F 80% 30.04 in 5.0 mi Calm Calm - N/A   Haze
4:55 AM 20.3 °F 15.4 °F 15.3 °F 81% 30.05 in 5.0 mi North 3.5 mph - N/A   Haze
5:15 AM 22.1 °F - 17.4 °F 82% 30.06 in 7.0 mi Calm Calm - N/A   Clear
5:35 AM 22.5 °F - 18.0 °F 83% 30.06 in 5.0 mi Calm Calm - N/A   Clear
5:55 AM 21.6 °F - 17.1 °F 83% 30.08 in 5.0 mi Calm Calm - N/A   Clear
6:15 AM 21.0 °F 13.4 °F 16.3 °F 82% 30.08 in 5.0 mi NNE 5.8 mph - N/A   Haze
6:35 AM 23.2 °F - 19.2 °F 85% 30.09 in 7.0 mi Calm Calm - N/A   Clear
6:55 AM 23.9 °F 19.5 °F 19.4 °F 83% 30.10 in 7.0 mi NW 3.5 mph - N/A   Clear
7:15 AM 25.3 °F 21.1 °F 21.4 °F 85% 30.10 in 10.0 mi NW 3.5 mph - N/A   Clear
7:35 AM 25.3 °F - 21.0 °F 84% 30.12 in 10.0 mi Calm Calm - N/A   Clear
7:55 AM 29.3 °F 22.3 °F 25.2 °F 85% 30.13 in 10.0 mi NNW 6.9 mph - N/A   Clear
8:15 AM 30.9 °F 25.2 °F 26.1 °F 82% 30.14 in 10.0 mi North 5.8 mph - N/A   Clear
8:35 AM 32.0 °F 26.4 °F 26.2 °F 79% 30.15 in 10.0 mi NNW 5.8 mph - N/A   Clear
8:55 AM 33.1 °F 28.7 °F 26.6 °F 77% 30.15 in 10.0 mi NNW 4.6 mph - N/A   Clear
9:15 AM 34.0 °F 29.8 °F 27.3 °F 77% 30.16 in 10.0 mi North 4.6 mph - N/A   Clear
9:35 AM 34.7 °F 29.6 °F 28.9 °F 79% 30.17 in 10.0 mi North 5.8 mph - N/A   Clear
9:55 AM 35.1 °F 31.0 °F 28.6 °F 77% 30.18 in 10.0 mi North 4.6 mph - N/A   Clear
10:15 AM 35.6 °F 32.8 °F 28.8 °F 76% 30.19 in 10.0 mi North 3.5 mph - N/A   Clear
10:35 AM 36.9 °F - 29.5 °F 75% 30.20 in 10.0 mi Calm Calm - N/A   Clear
10:55 AM 37.6 °F 35.1 °F 28.0 °F 68% 30.20 in 10.0 mi NNW 3.5 mph - N/A   Clear
11:15 AM 38.5 °F 35.0 °F 27.3 °F 64% 30.20 in 10.0 mi WNW 4.6 mph - N/A   Clear
11:35 AM 38.7 °F - 27.7 °F 65% 30.20 in 10.0 mi Calm Calm - N/A   Clear
11:55 AM 39.4 °F - 27.5 °F 62% 30.19 in 10.0 mi Calm Calm - N/A   Clear
12:15 PM 39.6 °F - 27.7 °F 62% 30.18 in 10.0 mi Calm Calm - N/A   Clear
12:35 PM 40.6 °F - 32.0 °F 71% 30.18 in 10.0 mi Calm Calm - N/A   Clear
12:55 PM 40.3 °F - 31.5 °F 71% 30.17 in 10.0 mi Calm Calm - N/A   Clear
1:15 PM 40.1 °F - 31.8 °F 72% 30.16 in 10.0 mi Calm Calm - N/A   Clear
1:35 PM 40.1 °F - 30.2 °F 68% 30.16 in 10.0 mi Calm Calm - N/A   Clear
1:55 PM 40.3 °F - 29.5 °F 65% 30.16 in 10.0 mi Calm Calm - N/A   Clear
2:15 PM 40.8 °F - 29.7 °F 64% 30.16 in 10.0 mi Calm Calm - N/A   Clear
2:35 PM 41.2 °F - 28.2 °F 60% 30.16 in 10.0 mi Calm Calm - N/A   Clear
2:55 PM 41.4 °F 39.4 °F 29.7 °F 63% 30.15 in 10.0 mi West 3.5 mph - N/A   Clear
3:15 PM 41.9 °F - 29.1 °F 61% 30.16 in 10.0 mi Calm Calm - N/A   Clear
3:35 PM 41.9 °F - 27.3 °F 56% 30.17 in 10.0 mi Calm Calm - N/A   Clear
3:55 PM 41.9 °F - 27.5 °F 57% 30.17 in 10.0 mi Calm Calm - N/A   Clear
4:15 PM 41.9 °F 39.0 °F 27.0 °F 55% 30.19 in 10.0 mi WNW 4.6 mph - N/A   Clear
4:35 PM 41.2 °F 38.2 °F 25.5 °F 54% 30.19 in 10.0 mi NW 4.6 mph - N/A   Clear
4:55 PM 40.1 °F 36.1 °F 25.3 °F 56% 30.20 in 10.0 mi WNW 5.8 mph - N/A   Clear
5:35 PM 38.3 °F 33.9 °F 25.5 °F 60% 30.21 in 10.0 mi NW 5.8 mph - N/A   Clear
5:55 PM 38.3 °F 33.9 °F 25.7 °F 61% 30.22 in 10.0 mi NW 5.8 mph - N/A   Clear
6:15 PM 37.8 °F 31.8 °F 25.5 °F 61% 30.23 in 10.0 mi NW 8.1 mph - N/A   Clear
6:35 PM 37.6 °F 34.0 °F 25.5 °F 62% 30.22 in 10.0 mi NNW 4.6 mph - N/A   Clear
6:55 PM 37.4 °F 33.8 °F 25.3 °F 62% 30.24 in 10.0 mi WNW 4.6 mph - N/A   Clear
7:15 PM 36.9 °F 34.3 °F 25.3 °F 63% 30.25 in 10.0 mi NW 3.5 mph - N/A   Clear
7:35 PM 35.6 °F 32.8 °F 24.6 °F 64% 30.25 in 10.0 mi NW 3.5 mph - N/A   Clear
7:55 PM 34.7 °F 30.6 °F 24.6 °F 67% 30.27 in 10.0 mi NNW 4.6 mph - N/A   Clear
8:15 PM 34.3 °F 31.4 °F 24.4 °F 67% 30.27 in 10.0 mi NNW 3.5 mph - N/A   Clear
8:35 PM 33.6 °F 30.6 °F 23.5 °F 67% 30.29 in 10.0 mi NNW 3.5 mph - N/A   Clear
8:55 PM 33.1 °F 28.7 °F 23.5 °F 68% 30.29 in 10.0 mi North 4.6 mph - N/A   Clear
9:15 PM 32.2 °F 27.7 °F 22.8 °F 68% 30.29 in 10.0 mi North 4.6 mph - N/A   Clear
9:35 PM 32.2 °F 25.0 °F 23.4 °F 70% 30.30 in 10.0 mi North 8.1 mph - N/A   Clear
9:55 PM 32.0 °F 25.6 °F 23.2 °F 70% 30.31 in 10.0 mi NNE 6.9 mph - N/A   Clear
10:15 PM 31.5 °F 22.9 °F 22.6 °F 70% 30.31 in 10.0 mi North 10.4 mph - N/A   Clear
10:35 PM 32.0 °F 25.6 °F 23.0 °F 69% 30.32 in 10.0 mi NNE 6.9 mph 16.1 mph N/A   Clear
10:55 PM 31.8 °F 25.4 °F 23.0 °F 70% 30.33 in 10.0 mi NNE 6.9 mph - N/A   Clear
11:15 PM 31.6 °F 26.0 °F 22.5 °F 69% 30.33 in 10.0 mi NNE 5.8 mph - N/A   Clear
11:35 PM 30.4 °F 26.9 °F 21.0 °F 68% 30.34 in 10.0 mi NE 3.5 mph - N/A   Clear
11:55 PM 29.7 °F - 20.7 °F 69% 30.35 in 10.0 mi Calm Calm - N/A   Clear